Date String (YYYY-MM-DD hh:mm:ss) UTC,Instrument flags,Ambient pressure (hPa),Sample flow (lpm),Bypass flow (lpm),Sample temperature (°C),Ambient temperature (°C),ASC tube jacket temperature (°C),LED temperature (°C),Box temperature (°C),Sample RH (%),Span deviation,Mass concentration (μg/m³),Mass concentration (μg/m³),Mass concentration (μg/m³)
DateTimeUTC,F1_M11,P_M11,Q1_M11,Q2_M11,T1_M11,T2_M11,T3_M11,T4_M11,T5_M11,U1_M11,ZSPAN_M11,X0_M11,X2_M11,X1_M11
2021-12-02 10:00:00,,0828.7,5.00,0.00,29.7,28.7,00.0,38.8,31.4,07.4,0000.0,0001.23,0000.34,0000.20
2021-12-02 10:01:00,,0828.7,4.99,0.00,29.7,28.7,00.0,38.8,31.4,07.4,0000.0,0001.18,0000.33,0000.19
2021-12-02 10:02:00,,0828.7,5.00,0.00,29.7,28.7,00.0,38.8,31.4,07.4,0000.0,0001.14,0000.31,0000.19
2021-12-02 10:03:00,,0828.7,5.02,0.00,29.7,28.8,00.0,38.8,31.4,07.4,0000.0,0001.10,0000.30,0000.19
2021-12-02 10:04:00,,0828.7,5.01,0.00,29.7,28.8,00.0,38.8,31.4,07.3,0000.0,0001.09,0000.30,0000.19
2021-12-02 10:05:00,,0828.7,5.00,0.00,29.7,28.8,00.0,38.8,31.4,07.3,0000.0,0001.14,0000.32,0000.20
2021-12-02 10:06:00,,0828.7,5.00,0.00,29.7,28.8,00.0,38.8,31.4,07.3,0000.0,0001.25,0000.34,0000.21
2021-12-02 10:07:00,,0828.7,5.00,0.00,29.7,28.7,00.0,38.8,31.3,07.3,0000.0,0001.26,0000.34,0000.21
2021-12-02 10:08:00,,0828.7,5.01,0.00,29.7,28.7,00.0,38.7,31.3,07.3,0000.0,0001.27,0000.35,0000.21
2021-12-02 10:09:00,,0829.0,5.00,0.00,29.7,28.7,00.0,38.7,31.4,07.3,0000.0,0001.26,0000.35,0000.21
2021-12-02 10:10:00,,0829.2,4.99,0.00,29.7,28.7,00.0,38.7,31.3,07.4,0000.0,0001.17,0000.35,0000.22
2021-12-02 10:11:00,,0829.1,5.00,0.00,29.7,28.7,00.0,38.7,31.3,07.4,0000.0,0000.73,0000.36,0000.21
2021-12-02 10:12:00,,0829.0,5.00,0.00,29.7,28.7,00.0,38.7,31.3,07.4,0000.0,0000.74,0000.36,0000.21
2021-12-02 10:13:00,,0828.7,5.01,0.00,29.7,28.7,00.0,38.7,31.3,07.5,0000.0,0000.68,0000.34,0000.20
2021-12-02 10:14:00,,0828.8,4.99,0.00,29.6,28.7,00.0,38.7,31.3,07.5,0000.0,0000.68,0000.34,0000.21
2021-12-02 10:15:00,,0828.9,5.01,0.00,29.6,28.7,00.0,38.7,31.2,07.4,0000.0,0000.67,0000.34,0000.21
2021-12-02 10:16:00,,0828.9,4.99,0.00,29.6,28.7,00.0,38.7,31.3,07.3,0000.0,0000.67,0000.35,0000.21
2021-12-02 10:17:00,,0828.6,5.00,0.00,29.6,28.7,00.0,38.7,31.2,07.3,0000.0,0000.57,0000.33,0000.20
2021-12-02 10:18:00,,0828.8,5.00,0.00,29.6,28.7,00.0,38.7,31.3,07.3,0000.0,0000.55,0000.33,0000.20
2021-12-02 10:19:00,,0828.8,5.01,0.00,29.6,28.7,00.0,38.7,31.3,07.3,0000.0,0000.63,0000.35,0000.20
2021-12-02 10:20:00,,0829.0,4.99,0.00,29.6,28.7,00.0,38.7,31.3,07.3,0000.0,0000.69,0000.38,0000.20
2021-12-02 10:21:00,,0829.0,5.01,0.00,29.6,28.7,00.0,38.7,31.3,07.3,0000.0,0000.73,0000.39,0000.20
2021-12-02 10:22:00,,0828.7,4.99,0.00,29.6,28.7,00.0,38.7,31.3,07.3,0000.0,0000.76,0000.42,0000.21
2021-12-02 10:23:00,,0828.8,5.01,0.00,29.6,28.7,00.0,38.7,31.3,07.3,0000.0,0000.76,0000.43,0000.21
2021-12-02 10:24:00,,0829.1,5.01,0.00,29.6,28.7,00.0,38.7,31.3,07.3,0000.0,0000.77,0000.43,0000.21
2021-12-02 10:25:00,,0829.0,5.00,0.00,29.6,28.7,00.0,38.7,31.3,07.3,0000.0,0000.79,0000.45,0000.21
2021-12-02 10:26:00,,0828.9,5.00,0.00,29.6,28.7,00.0,38.7,31.3,07.4,0000.0,0000.84,0000.45,0000.21
2021-12-02 10:27:00,,0828.9,5.00,0.00,29.6,28.7,00.0,38.7,31.3,07.4,0000.0,0000.88,0000.45,0000.20
2021-12-02 10:28:00,,0828.9,5.00,0.00,29.6,28.6,00.0,38.6,31.2,07.4,0000.0,0000.93,0000.46,0000.20
2021-12-02 10:29:00,,0828.7,5.01,0.00,29.6,28.6,00.0,38.6,31.2,07.4,0000.0,0000.91,0000.44,0000.20
2021-12-02 10:30:00,,0828.7,5.00,0.00,29.6,28.6,00.0,38.6,31.2,07.4,0000.0,0000.79,0000.40,0000.19
2021-12-02 10:31:00,,0828.5,5.00,0.00,29.6,28.5,00.0,38.6,31.2,07.4,0000.0,0000.72,0000.37,0000.19
2021-12-02 10:32:00,,0828.5,5.00,0.00,29.6,28.5,00.0,38.6,31.2,07.4,0000.0,0000.67,0000.35,0000.19
2021-12-02 10:33:00,,0828.5,4.98,0.00,29.6,28.5,00.0,38.6,31.2,07.3,0000.0,0000.59,0000.31,0000.19
2021-12-02 10:34:00,,0828.5,5.01,0.00,29.6,28.5,00.0,38.6,31.2,07.3,0000.0,0000.63,0000.32,0000.20
2021-12-02 10:35:00,,0828.5,4.99,0.00,29.6,28.6,00.0,38.6,31.2,07.3,0000.0,0000.67,0000.33,0000.20
2021-12-02 10:36:00,,0828.5,5.00,0.00,29.6,28.6,00.0,38.6,31.2,07.4,0000.0,0000.68,0000.33,0000.20
2021-12-02 10:37:00,,0828.5,5.01,0.00,29.5,28.5,00.0,38.6,31.2,07.3,0000.0,0000.64,0000.32,0000.19
2021-12-02 10:38:00,,0828.5,4.99,0.00,29.6,28.5,00.0,38.6,31.2,07.3,0000.0,0000.56,0000.32,0000.19
2021-12-02 10:39:00,,0828.5,5.01,0.00,29.6,28.5,00.0,38.6,31.2,07.2,0000.0,0000.54,0000.31,0000.19
2021-12-02 10:40:00,,0828.4,5.01,0.00,29.5,28.5,00.0,38.6,31.1,07.2,0000.0,0000.52,0000.31,0000.20
2021-12-02 10:41:00,,0828.5,4.99,0.00,29.5,28.5,00.0,38.6,31.2,07.3,0000.0,0000.52,0000.31,0000.20
2021-12-02 10:42:00,,0828.5,5.00,0.00,29.6,28.5,00.0,38.6,31.2,07.3,0000.0,0000.54,0000.31,0000.20
2021-12-02 10:43:00,,0828.5,5.01,0.00,29.6,28.6,00.0,38.6,31.2,07.3,0000.0,0000.60,0000.33,0000.20
2021-12-02 10:44:00,,0828.5,5.01,0.00,29.5,28.6,00.0,38.6,31.2,07.3,0000.0,0000.66,0000.36,0000.20
2021-12-02 10:45:00,,0828.5,4.99,0.00,29.5,28.6,00.0,38.6,31.2,07.3,0000.0,0000.63,0000.35,0000.20
2021-12-02 10:46:00,,0828.5,5.01,0.00,29.5,28.6,00.0,38.6,31.2,07.3,0000.0,0000.65,0000.35,0000.20
2021-12-02 10:47:00,,0828.4,5.00,0.00,29.5,28.6,00.0,38.6,31.2,07.3,0000.0,0000.66,0000.35,0000.20
2021-12-02 10:48:00,,0828.5,4.99,0.00,29.5,28.6,00.0,38.6,31.2,07.3,0000.0,0000.68,0000.36,0000.20
2021-12-02 10:49:00,,0828.5,5.01,0.00,29.5,28.6,00.0,38.6,31.2,07.3,0000.0,0001.51,0000.37,0000.20
2021-12-02 10:50:00,,0828.5,4.99,0.00,29.5,28.6,00.0,38.6,31.2,07.3,0000.0,0001.59,0000.36,0000.20
2021-12-02 10:51:00,,0828.5,5.01,0.00,29.5,28.6,00.0,38.6,31.2,07.3,0000.0,0001.61,0000.36,0000.20
2021-12-02 10:52:00,,0828.5,5.00,0.00,29.5,28.6,00.0,38.6,31.2,07.3,0000.0,0001.65,0000.38,0000.21
2021-12-02 10:53:00,,0828.4,5.00,0.00,29.5,28.6,00.0,38.5,31.2,07.4,0000.0,0001.65,0000.38,0000.21
2021-12-02 10:54:00,,0828.4,5.01,0.00,29.5,28.6,00.0,38.5,31.2,07.4,0000.0,0001.59,0000.36,0000.22
2021-12-02 10:55:00,,0828.4,4.99,0.00,29.5,28.6,00.0,38.5,31.2,07.4,0000.0,0001.56,0000.35,0000.21
2021-12-02 10:56:00,,0828.3,5.00,0.00,29.5,28.5,00.0,38.5,31.1,07.4,0000.0,0001.55,0000.35,0000.21
2021-12-02 10:57:00,,0828.3,5.01,0.00,29.5,28.5,00.0,38.5,31.2,07.4,0000.0,0001.49,0000.33,0000.21
2021-12-02 10:58:00,,0828.3,5.00,0.00,29.5,28.5,00.0,38.5,31.1,07.4,0000.0,0001.92,0000.33,0000.21
2021-12-02 10:59:00,,0828.3,4.99,0.00,29.5,28.5,00.0,38.5,31.1,07.4,0000.0,0002.51,0000.32,0000.21
